SCP
0 -0 0 -0 0 0 0 0 0 -0 0 0 0 0 0 0 0 -0 0 0 0 -0
0 0 -0 0 0 0 -0 0 0 0 -0 0 0 -0 0 0 0 0 -0 0 0 0
0 0 0 0 0 -0 0 -0 0 0 0 0 0 -0 0 0 0 -0 0 0 0 -0
0 0 -0 0 -0 0 0 0 -0 0 0 -0 0 0 0 0 0 0 0 0 0 0
0 0 0 0 0 0 0 0 0 0 0 0 0 0 0 0 0 0 0 0 0 0
0 0 0 0 -0 -0 0 0 0 0 0 0 0 0 0 0 0 0 0 0 0 0
0 0 0 0 0 0 0 0 0 0 0 0 0 0 0 0 0 0 0 0 0 0
0 0 0 0 0 0 0 0 0 0 0 0 0 0 0 0 0 0 0 0 0 0
0 0 0 0 0 0 0 0 0 0 0 0 0 0 0 0 0 0 0 0 0 0
0 1 1 1 1 1 1 1 0 0 0 0 0 0 0 0 0 0 0 0 0 0
1 1 1 1 0 0 0 0 1 0 0 0 0 0 0 0 0 0 0 0 0 0
1 0 1 0 1 1 0 0 0 0 0 0 0 0 0 0 0 0 0 0 0 0
0 0 0 0 0 0 0 0 0 0 0 0 0 0 0 0 0 0 0 0 0 0
0 0 0 0 0 0 0 0 0 0 0 0 0 0 0 0 0 0 0 0 0 0
Wind_Speed_500mb
41 32 29 27 18 18 14 17 12 27 17 10 11 8 8 3 6 6 13 11 10 3
44 37 30 26 26 29 22 19 25 24 19 15 12 15 19 15 14 15 21 10 12 9
44 45 44 39 34 33 28 25 19 14 26 16 15 17 14 16 19 23 19 18 20 19
37 42 45 44 38 33 27 22 16 19 12 13 21 22 16 14 13 23 24 18 20 13
28 33 43 44 42 34 27 20 24 17 14 17 15 19 18 11 10 12 14 12 15 17
36 34 35 34 27 16 21 23 22 22 24 18 16 17 19 17 13 11 13 13 14 21
40 36 34 34 30 28 25 28 29 28 32 29 24 19 17 18 14 10 11 13 18 21
36 35 37 38 37 34 35 37 36 30 24 21 22 20 21 21 19 20 21 21 27 25
41 37 36 36 37 36 35 34 29 28 26 28 32 32 29 27 28 26 26 31 36 34
54 50 39 41 40 40 36 36 37 36 36 37 36 37 34 33 30 30 28 34 37 34
57 48 41 41 39 36 38 41 45 48 45 41 41 43 39 36 35 36 43 34 37 32
15 31 38 42 39 39 35 40 40 38 39 37 37 36 35 35 35 39 38 34 32 30
23 25 34 38 43 43 31 28 33 35 35 33 32 33 32 33 27 28 30 30 37 40
25 21 24 26 19 16 20 21 19 19 18 17 17 21 20 18 14 20 20 15 23 29
Wind_Direction_500mb
204 193 174 171 167 188 213 216 231 207 213 205 263 270 252 262 268 297 295 334 300 33
205 203 195 191 192 206 209 220 203 189 218 222 237 272 256 249 249 253 271 278 289 297
208 211 206 200 205 210 216 219 224 223 207 225 253 265 257 256 247 246 249 263 254 259
207 205 200 208 207 206 214 214 250 224 235 250 253 244 246 254 257 248 262 255 255 259
203 201 203 208 215 208 222 233 240 237 252 247 245 239 248 261 265 273 284 265 256 257
209 207 204 195 196 219 229 226 224 221 247 251 249 243 251 266 285 297 298 292 275 262
211 214 202 202 218 216 229 235 251 254 254 257 261 265 265 268 266 285 300 291 300 285
207 199 202 211 216 214 233 246 252 250 246 256 271 283 277 265 272 280 283 287 310 304
206 201 202 203 206 216 227 235 246 252 257 263 263 275 280 266 266 264 262 282 294 297
203 207 202 208 217 226 233 236 242 254 259 263 262 264 263 264 261 262 276 287 284 284
195 194 209 217 221 234 243 251 255 260 267 266 268 270 270 266 262 261 287 281 281 276
232 241 234 230 237 239 245 253 255 263 266 269 275 277 275 280 277 279 278 283 270 270
247 242 247 244 245 248 253 259 263 266 272 279 279 283 284 284 291 284 279 277 272 273
236 232 237 228 222 238 249 262 267 271 284 290 288 290 285 284 302 308 285 283 276 285
Wind_Speed_850mb
41 32 29 27 18 18 14 17 12 27 17 10 11 8 8 3 6 6 13 11 10 3
44 37 30 26 26 29 22 19 25 24 19 15 12 15 19 15 14 15 21 10 12 9
44 45 44 39 34 33 28 25 19 14 26 16 15 17 14 16 19 23 19 18 20 19
37 42 45 44 38 33 27 22 16 19 12 13 21 22 16 14 13 23 24 18 20 13
28 33 43 44 42 34 27 20 24 17 14 17 15 19 18 11 10 12 14 12 15 17
36 34 35 34 27 16 21 23 22 22 24 18 16 17 19 17 13 11 13 13 14 21
40 36 34 34 30 28 25 28 29 28 32 29 24 19 17 18 14 10 11 13 18 21
36 35 37 38 37 34 35 37 36 30 24 21 22 20 21 21 19 20 21 21 27 25
41 37 36 36 37 36 35 34 29 28 26 28 32 32 29 27 28 26 26 31 36 34
54 50 39 41 40 40 36 36 37 36 36 37 36 37 34 33 30 30 28 34 37 34
57 48 41 41 39 36 38 41 45 48 45 41 41 43 39 36 35 36 43 34 37 32
15 31 38 42 39 39 35 40 40 38 39 37 37 36 35 35 35 39 38 34 32 30
23 25 34 38 43 43 31 28 33 35 35 33 32 33 32 33 27 28 30 30 37 40
25 21 24 26 19 16 20 21 19 19 18 17 17 21 20 18 14 20 20 15 23 29
Wind_Direction_850mb
204 193 174 171 167 188 213 216 231 207 213 205 263 270 252 262 268 297 295 334 300 33
205 203 195 191 192 206 209 220 203 189 218 222 237 272 256 249 249 253 271 278 289 297
208 211 206 200 205 210 216 219 224 223 207 225 253 265 257 256 247 246 249 263 254 259
207 205 200 208 207 206 214 214 250 224 235 250 253 244 246 254 257 248 262 255 255 259
203 201 203 208 215 208 222 233 240 237 252 247 245 239 248 261 265 273 284 265 256 257
209 207 204 195 196 219 229 226 224 221 247 251 249 243 251 266 285 297 298 292 275 262
211 214 202 202 218 216 229 235 251 254 254 257 261 265 265 268 266 285 300 291 300 285
207 199 202 211 216 214 233 246 252 250 246 256 271 283 277 265 272 280 283 287 310 304
206 201 202 203 206 216 227 235 246 252 257 263 263 275 280 266 266 264 262 282 294 297
203 207 202 208 217 226 233 236 242 254 259 263 262 264 263 264 261 262 276 287 284 284
195 194 209 217 221 234 243 251 255 260 267 266 268 270 270 266 262 261 287 281 281 276
232 241 234 230 237 239 245 253 255 263 266 269 275 277 275 280 277 279 278 283 270 270
247 242 247 244 245 248 253 259 263 266 272 279 279 283 284 284 291 284 279 277 272 273
236 232 237 228 222 238 249 262 267 271 284 290 288 290 285 284 302 308 285 283 276 285